WR7DW-3 Weather Reports


time (UTC)temp
F
wind
direction
speed
knots
gust
knots
rain 1hr
in
rain 24hr
in
rain mn
in
humidity
%
barometer
mb
20260503045945 47 350 0.0 0.0 0.00 0.00 0.00 52 1007.6
20260503044445 47 4 0.0 0.0 0.00 0.00 0.00 51 1007.7
20260503042945 47 4 0.0 0.0 0.00 0.00 0.00 52 1007.7
20260503041446 47 354 0.0 0.0 0.00 0.00 0.00 51 1007.8
20260503035946 47 359 0.0 0.0 0.00 0.00 0.00 50 1007.7
20260503034446 47 354 0.0 0.0 0.00 0.00 0.00 51 1007.6
20260503032946 47 354 0.0 0.0 0.00 0.00 0.00 54 1007.7
20260503031446 47 334 0.0 0.0 0.00 0.00 0.00 56 1007.6
20260503025947 47 325 0.0 0.0 0.00 0.00 0.00 54 1007.5
20260503024446 47 335 0.0 0.0 0.00 0.00 0.00 54 1007.4
20260503022946 48 335 0.0 0.0 0.00 0.00 0.00 53 1007.5
20260503021446 48 325 0.0 0.0 0.00 0.00 0.00 53 1007.5
20260503015946 49 313 0.0 0.0 0.00 0.00 0.00 51 1007.4
20260503014446 49 308 0.0 0.0 0.00 0.00 0.00 51 1007.5
20260503012947 50 318 0.0 0.0 0.00 0.00 0.00 50 1007.7
20260503011446 48 309 0.0 0.0 0.00 0.00 0.00 52 1007.9
20260503005946 48 299 0.0 0.0 0.00 0.00 0.00 50 1007.9
20260503004446 48 309 0.0 0.0 0.00 0.00 0.00 51 1008.1
20260503002946 48 311 0.0 0.0 0.00 0.00 0.00 54 1008.1
20260503001446 47 318 0.0 0.0 0.00 0.00 0.00 54 1008.3
20260502235946 48 306 0.0 0.0 0.00 0.00 0.00 50 1008.2
20260502234446 50 289 0.0 0.0 0.00 0.00 0.00 47 1008.2
20260502232946 50 332 0.0 0.0 0.00 0.00 0.00 45 1008.5
20260502231446 49 343 0.0 0.0 0.00 0.00 0.00 44 1008.6
20260502225946 49 332 0.0 0.0 0.00 0.00 0.00 44 1008.7
20260502224446 49 308 0.0 0.0 0.00 0.00 0.00 46 1008.7
20260502222946 49 294 0.0 0.0 0.00 0.00 0.00 45 1008.7
20260502221446 50 305 0.0 0.0 0.00 0.00 0.00 42 1008.7
20260502215946 51 309 0.0 0.0 0.00 0.00 0.00 39 1008.8
20260502214446 52 314 0.0 0.0 0.00 0.00 0.00 38 1009.0
20260502212946 51 272 0.0 0.0 0.00 0.00 0.00 42 1009.0
20260502211446 52 291 0.0 0.0 0.00 0.00 0.00 37 1009.2
20260502205948 50 292 0.0 0.0 0.00 0.00 0.00 40 1009.3
20260502204446 50 216 0.0 0.0 0.00 0.00 0.00 46 1009.5
20260502202946 49 200 0.0 0.0 0.00 0.00 0.00 49 1009.6
20260502201446 48 320 0.0 0.0 0.00 0.00 0.00 52 1009.7
20260502194447 47 230 0.0 0.0 0.00 0.00 0.00 55 1009.8
20260502192946 47 269 0.0 0.0 0.00 0.00 0.00 55 1009.8
20260502191446 46 285 0.0 0.0 0.00 0.00 0.00 57 1010.0
20260502185946 47 291 0.0 0.0 0.00 0.00 0.00 60 1010.1
20260502184447 46 289 0.0 0.0 0.00 0.00 0.00 62 1010.3
20260502181447 44 289 0.0 0.0 0.00 0.00 0.00 64 1010.6
20260502162947 43 15 0.0 0.0 0.00 0.00 0.00 65 1011.0
20260502161447 42 249 0.0 0.0 0.00 0.00 0.00 67 1010.8
20260502151447 40 128 0.0 0.0 0.00 0.00 0.00 69 1010.8
20260502122947 37 200 0.0 0.0 0.00 0.00 0.00 73 1009.8
20260502121447 37 260 0.0 0.0 0.00 0.00 0.00 74 1009.8
20260502114447 37 354 0.0 0.0 0.00 0.00 0.00 73 1009.7
20260502112947 37 32 0.0 0.0 0.00 0.00 0.00 72 1009.8
20260502111447 37 305 0.0 0.0 0.00 0.00 0.00 71 1010.0
20260502105947 37 128 0.0 0.0 0.00 0.00 0.00 69 1010.0
20260502104447 38 164 0.0 0.0 0.00 0.00 0.00 68 1010.1
20260502102947 38 215 0.0 0.0 0.00 0.00 0.00 67 1009.9
20260502101448 39 80 0.0 0.0 0.00 0.00 0.00 65 1009.8
20260502091448 41 136 0.0 0.0 0.00 0.00 0.00 57 1009.5
20260502065948 45 42 0.0 0.0 0.00 0.00 0.00 51 1010.0
20260502062948 46 16 0.0 0.0 0.00 0.00 0.00 47 1009.9
20260502061448 45 16 0.0 0.0 0.00 0.00 0.00 48 1010.1
20260502055948 45 354 0.0 0.0 0.00 0.00 0.00 51 1010.2
20260502054448 45 354 0.0 0.0 0.00 0.00 0.00 48 1010.2
20260502052948 46 328 0.0 0.0 0.00 0.00 0.00 47 1010.1
20260502051448 46 14 0.0 0.0 0.00 0.00 0.00 47 1010.2